sat.trackr.live / text

‹ back to catalog

IRIDIUM 129

NORAD 42958 · 2017-061D

PAYLOAD ACTIVE UNKNOWN

§ Identity

Operator
Country
US
Launch date
2017-10-09
Launch site
AFWTR
Launch vehicle
Mass (kg)
RCS (m²)

Purposes: comms

External: N2YO · Heavens-Above · Gunter

§ Orbital elements

Epoch: 2026-09-19T23:22:18.759072Z

Period
100.40 min
Inclination
86.4024°
Eccentricity
0.0002394
Mean motion
14.34217855 rev/d
Perigee alt
776.0 km
Apogee alt
779.4 km
Semi-major
7,155.8 km
B*
1.1938e-5
RAAN
345.6485°
Arg perigee
97.8630°
Mean anomaly
262.2838°
Rev number
46,838

§ Raw data

IRIDIUM 1291 42958U 17061D   26262.97382823  .00000053  00000+0  11938-4 0  99962 42958  86.4024 345.6485 0002394  97.8630 262.2838 14.34217855468380

JSON: /api/v1/satellites/42958 · /tle

For live sub-satellite position, see the globe view (requires WebGL).

§ Visibility from observer

Set your observer location to see the next 7 days of passes ≥ 10°. The values pass through the URL so the page stays shareable.

No JS? Fill the form by hand. The geolocation button needs JavaScript.